N0THY Weather Reports


time (UTC)temp
F
wind
direction
speed
knots
gust
knots
rain 1hr
in
rain 24hr
in
rain mn
in
humidity
%
barometer
mb
20260505095841 44 357 0.0 0.0 0.00 0.00 0.20 93 1010.9
20260505094338 44 44 0.0 0.0 0.00 0.00 0.20 94 1010.9
20260505092835 44 89 0.0 0.9 0.00 0.00 0.20 93 1010.8
20260505091332 45 46 0.9 0.9 0.00 0.00 0.20 93 1010.9
20260505085829 45 44 0.0 0.9 0.00 0.00 0.20 92 1011.0
20260505084326 46 43 0.0 0.9 0.00 0.00 0.20 91 1011.0
20260505082823 47 43 0.0 0.9 0.00 0.00 0.20 89 1011.2
20260505081320 48 135 0.0 0.9 0.00 0.00 0.20 89 1011.3
20260505075817 48 42 0.0 0.9 0.00 0.00 0.20 89 1011.5
20260505074314 49 44 0.0 0.0 0.00 0.00 0.20 88 1011.7
20260505072812 49 348 0.0 0.0 0.00 0.00 0.20 87 1011.9
20260505071309 49 231 0.0 0.0 0.00 0.00 0.20 87 1011.9
20260505065806 49 230 0.0 2.6 0.00 0.00 0.20 88 1011.7
20260505064732 50 113 0.9 0.9 0.00 0.00 0.19 88 1012.2
20260505062800 49 75 0.9 1.7 0.00 0.00 0.20 88 1012.0
20260505061257 49 44 0.0 0.9 0.00 0.00 0.20 88 1012.0
20260505055754 50 64 0.0 0.0 0.00 0.00 0.20 88 1012.1
20260505054251 49 226 0.0 0.0 0.00 0.00 0.20 86 1012.2
20260505052748 50 113 0.9 0.9 0.00 0.00 0.19 88 1012.2
20260505051245 50 72 0.9 0.9 0.00 0.00 0.19 89 1012.3
20260505041233 49 44 0.0 1.7 0.00 0.00 0.18 85 1013.0
20260505035730 49 65 0.0 2.6 0.00 0.00 0.18 86 1012.8
20260505034227 49 36 0.0 2.6 0.00 0.00 0.18 88 1012.7
20260505032724 49 117 0.9 2.6 0.00 0.00 0.17 86 1012.4
20260505031222 50 13 0.9 1.7 0.00 0.00 0.15 82 1012.6
20260505025719 51 85 0.9 1.7 0.00 0.00 0.12 79 1012.3
20260505024216 51 358 0.9 2.6 0.00 0.00 0.09 78 1012.0
20260505022713 52 7 0.0 0.9 0.00 0.00 0.08 70 1011.7
20260505021210 53 128 1.7 2.6 0.00 0.00 0.07 67 1011.6
20260505015707 53 260 0.9 2.6 0.00 0.00 0.06 62 1011.3
20260505014204 54 0 0.9 5.2 0.00 0.00 0.05 60 1010.4
20260505011158 59 315 0.9 2.6 0.00 0.00 0.00 44 1009.4
20260505005655 62 314 0.9 3.5 0.00 0.00 0.00 36 1009.3
20260505004152 64 357 2.6 2.6 0.00 0.00 0.00 33 1008.8
20260505002649 65 306 0.0 1.7 0.00 0.00 0.00 31 1008.7
20260505001146 66 168 0.9 1.7 0.00 0.00 0.00 29 1008.8
20260504235643 69 88 0.9 3.5 0.00 0.00 0.00 25 1008.8
20260504234140 70 180 0.0 2.6 0.00 0.00 0.00 24 1008.7
20260504232637 70 274 3.5 11.3 0.00 0.00 0.00 21 1008.7
20260504231134 70 225 9.6 10.4 0.00 0.00 0.00 19 1008.6
20260504225631 71 268 4.3 11.3 0.00 0.00 0.00 19 1008.2
20260504224129 71 241 5.2 9.6 0.00 0.00 0.00 19 1008.4
20260504222626 71 261 6.1 7.8 0.00 0.00 0.00 20 1008.4
20260504221123 71 248 5.2 8.7 0.00 0.00 0.00 21 1008.4
20260504215620 70 232 6.1 8.7 0.00 0.00 0.00 23 1008.7
20260504214117 72 92 3.5 5.2 0.00 0.00 0.00 25 1008.9
20260504212614 71 207 5.2 5.2 0.00 0.00 0.00 24 1009.4
20260504211111 70 228 4.3 9.6 0.00 0.00 0.00 24 1009.4
20260504204105 67 154 0.9 6.1 0.00 0.00 0.00 29 1010.0
20260504202602 67 242 1.7 6.1 0.00 0.00 0.00 29 1010.2
20260504201059 66 233 3.5 6.1 0.00 0.00 0.00 31 1010.6
20260504195556 67 282 2.6 5.2 0.00 0.00 0.00 29 1010.6
20260504194053 69 257 4.3 4.3 0.00 0.00 0.00 28 1010.8
20260504192550 69 247 3.5 6.1 0.00 0.00 0.00 29 1011.1
20260504191047 65 87 0.9 4.3 0.00 0.00 0.00 35 1011.2
20260504185544 65 270 1.7 4.3 0.00 0.00 0.00 34 1011.5
20260504184041 66 273 5.2 6.1 0.00 0.00 0.00 31 1011.5
20260504182539 68 260 3.5 8.7 0.00 0.00 0.00 26 1011.5
20260504182355 69 226 3.5 9.6 0.00 0.00 0.00 29 1011.8
20260504181036 70 69 2.6 5.2 0.00 0.00 0.00 27 1011.4
20260504175533 69 226 3.5 9.6 0.00 0.00 0.00 29 1011.8
20260504174030 68 118 2.6 6.1 0.00 0.00 0.00 28 1011.9
20260504172527 69 274 0.9 5.2 0.00 0.00 0.00 28 1011.7
20260504171024 69 265 0.9 2.6 0.00 0.00 0.00 28 1011.8
20260504151000 60 36 1.7 2.6 0.00 0.00 0.00 46 1013.9
20260504140949 52 76 1.7 2.6 0.00 0.00 0.00 60 1014.5